Location: Zagreb
(45.8000°N, 16.0000°E)
Time: 19:21:51
(UTC+01:00)

YUBILEINY - Pass Details

Date: 05 November 2020
Orbit: 1478 x 1509 km, 82.5° (Epoch: 01 December)

Event Time Altitude Azimuth Distance (km) Brightness Sun altitude
Rises 18:55:40 0° 355° (N) 4,611 ? -24.6°
Reaches altitude 10° 18:59:29 10° 10° (N) 3,627 ? -25.2°
Enters shadow 19:03:30 20° 37° (NE) 2,911 ? -25.9°
